Regional Weather Roundup
Issued by NWS Sioux Falls, SD

Home | Current Version | Previous Version | Text Only | Print | Product List | Glossary On
Versions: 1 2 3 4 5 6 7 8 9 10 11 12 13 14 15 16 17 18 19 20 21 22 23 24 25 26 27 28 29 30 31 32 33 34 35 36 37 38 39 40 41 42 43 44 45 46 47 48 49 50
951
ASUS43 KFSD 232210
RWRFSD

WEATHER ROUNDUP FOR SE SOUTH DAKOTA/SW MINNESOTA/NW IOWA
NATIONAL WEATHER SERVICE SIOUX FALLS SD
500 PM CDT TUE MAY 23 2017

NOTE: "FAIR" INDICATES FEW OR NO CLOUDS BELOW 12,000 FEET WITH NO
SIGNIFICANT WEATHER AND OR OBSTRUCTIONS TO VISIBILITY.


SDZ038>040-050-052>070-232300-
SOUTHEAST SOUTH DAKOTA

CITY           SKY/WX    TMP DP  RH WIND       PRES   REMARKS
BROOKINGS      LGT RAIN  48  45  87 N14G22    29.88R
CHAMBERLAIN    CLOUDY    56  44  64 NW13G20   29.98S
HURON          CLOUDY    53  45  74 N15G24    29.94S
MADISON        FAIR      50  50 100 N18G25    29.89S
MITCHELL       CLOUDY    54  44  69 N17       29.93S
SIOUX FALLS    CLOUDY    57  47  69 N17G28    29.84F
WINNER         CLOUDY    57  42  57 N22G28    29.98F
YANKTON        PTSUNNY   51  48  89 NW14      29.88F
$$

MNZ071-072-080-081-089-090-097-098-232300-
SOUTHWEST MINNESOTA

CITY           SKY/WX    TMP DP  RH WIND       PRES   REMARKS
FAIRMONT       RAIN      51  48  89 NE10      29.81R
JACKSON        CLOUDY    54  45  71 NE16      29.81S
LUVERNE        CLOUDY    52  43  71 N9        29.85S
MARSHALL       PTSUNNY   57  48  72 N14       29.84S
MONTEVIDEO     RAIN      54  48  82 E8G16     29.85S
PIPESTONE      MOSUNNY   54  43  66 N14G24    29.84S
REDWOOD FALLS  PTSUNNY   59  42  53 N9        29.83R
TRACY          CLOUDY    53  46  78 N12G26    29.84S
WINDOM         CLOUDY    55  45  67 N14       29.82S
WORTHINGTON    CLOUDY    55  45  68 N16       29.82F
$$

IAZ001>003-012>014-020>022-031-032-NEZ013-014-SDZ071-232300-
NORTHWEST IOWA

CITY           SKY/WX    TMP DP  RH WIND       PRES   REMARKS
CHEROKEE       PTSUNNY   53  50  89 N7        29.82S
DENISON        PTSUNNY   55  48  76 N16G23    29.83S
ESTHERVILLE    CLOUDY    53  47  79 N21       29.79F
LE MARS        CLOUDY    57  48  72 N20G25    29.83F
ORANGE CITY    PTSUNNY   57  46  67 N16       29.83S
SHELDON        RAIN      50  46  87 N7G15       N/A
SIOUX CITY     PTSUNNY   59  48  67 N17       29.83F
SPENCER        CLOUDY    57  46  66 N16       29.80F
STORM LAKE       N/A     57  45  62 N20G28    29.80F
$$

ABBREVIATIONS USED IN REMARKS
   TC - TEMPERATURE IN CELSIUS
  WCI - WIND CHILL INDEX
   HX - HEAT INDEX
  VSB - VISIBILITY





USA.gov is the U.S. government's official web portal to all federal, state and local government web resources and services.